This demonstration page uses our WeatherBlox Daily Observations layout. Learn more.

Left ArrowRight Arrow

41.86663, -103.66717

Hourly Observations for April 24, 2018

Temp ( °F °C ) Dew Point ( °F °C ) Humidity (%) Winds ( mph kmh ) Pressure ( in mb ) Visibility ( mi km ) Precip ( " mm )
12:53 am 00:53 Cloudy 38 3.3 34 1.1 86 86 NW 24 39 30.27 1025 10 16 N/A
1:53 am 01:53 Cloudy 38 3.3 34 1.1 86 86 WNW 24 39 30.27 1025 10 16 N/A
2:53 am 02:53 Cloudy 38 3.3 33 0.6 83 83 NW 17 28 30.29 1026 10 16 N/A
3:32 am 03:32 Cloudy 37 3 34 1 87 87 NW 17 28 30.42 1030 10 16 N/A
3:53 am 03:53 Cloudy 37 2.8 33 0.6 86 86 NW 16 26 30.31 1027 10 16 N/A
4:33 am 04:33 Cloudy 37 2.8 33 0.6 86 86 NW 15 24 30.45 1031 10 16 N/A
4:53 am 04:53 Cloudy 37 2.8 32 undefined 82 82 NW 18 30 30.32 1027 10 16 N/A
5:53 am 05:53 Cloudy 37 2.8 33 0.6 86 86 NW 17 28 30.35 1028 10 16 N/A
6:53 am 06:53 Cloudy 37 2.8 33 0.6 86 86 NW 17 28 30.41 1030 10 16 N/A
7:53 am 07:53 Cloudy 38 3.3 32 undefined 79 79 NNW 17 28 30.45 1031 10 16 N/A
8:53 am 08:53 Cloudy 39 3.9 32 undefined 76 76 N 18 30 30.47 1032 10 16 N/A
9:53 am 09:53 Cloudy 40 4.4 33 0.6 77 77 N 14 22 30.48 1032 10 16 N/A
10:53 am 10:53 Cloudy 40 4.4 33 0.6 77 77 N 13 20 30.49 1032 10 16 N/A
11:53 am 11:53 Cloudy 41 5 33 0.6 73 73 N 13 20 30.48 1032 10 16 N/A
12:53 pm 12:53 Cloudy 43 6.1 34 1.1 71 71 NNW 10 17 30.47 1032 10 16 N/A
1:11 pm 13:11 Cloudy 44 6.7 34 1.1 68 68 N 13 20 30.45 1031 10 16 N/A
1:25 pm 13:25 Cloudy 44 6.7 33 0.6 65 65 N 13 20 30.42 1030 10 16 N/A
1:41 pm 13:41 Cloudy 44 6.7 33 0.6 65 65 N 14 22 30.42 1030 10 16 N/A
1:53 pm 13:53 Cloudy 44 6.7 33 0.6 65 65 N 12 19 30.45 1031 10 16 N/A
2:53 pm 14:53 Cloudy 42 5.6 33 0.6 71 71 N 15 24 30.45 1031 10 16 N/A
3:53 pm 15:53 Cloudy 45 7.2 34 1.1 66 66 N 16 26 30.44 1031 10 16 N/A
4:53 pm 16:53 Cloudy 44 6.7 32 undefined 63 63 N 10 17 30.43 1031 10 16 N/A
5:53 pm 17:53 Cloudy 43 6.1 33 0.6 68 68 N 12 19 30.44 1031 10 16 N/A
6:53 pm 18:53 Cloudy 41 5 32 undefined 70 70 NNE 13 20 30.45 1031 10 16 N/A
7:53 pm 19:53 Cloudy 40 4.4 32 undefined 73 73 NNE 8 13 30.45 1031 10 16 N/A
8:53 pm 20:53 Clear 36 2.2 30 -1.1 79 79 N N/A 30.47 1032 10 16 N/A
9:53 pm 21:53 Clear 32 undefined 29 -1.7 88 88 NNE 6 9 30.49 1033 10 16 N/A
10:53 pm 22:53 Clear 30 -1.1 28 -2.2 92 92 N N/A 30.50 1033 10 16 N/A
11:53 pm 23:53 Mostly Cloudy 31 -0.6 29 -1.7 92 92 NNE 6 9 30.48 1032 10 16 N/A

Powered by AerisWeather